Volver al catálogo

FENGYUN 1C DEB

LostSSO
NORAD 38493·DEBRIS·🇨🇳 China

Lanzado May 10, 1999 desde Taiyuan Satellite Launch Center

Loading…

Próximos Pases (próximas 24 horas)

TLE

ObsoletoSource: Space-Track

Época: Aug 3, 2026, 13:32 UTC

1 38493U 99025ESC 26215.56420126  .00000484  00000-0  36536-3 0  9996
2 38493  99.1055 165.0942 0426920 358.6682   1.3294 13.62561946596828

Sigue FENGYUN 1C DEB en tiempo real con AllMySat

Download on the App Store